Burbank, CA

11:48 AM PST on January 20, 2018 (GMT -0800)
Burbank-Glendale-Pasadena

Weather History for KBUR - February, 2014

Change the Weather History Date:

Monday, February 10, 2014

  Actual Average Record
Temperature  
Mean Temperature 65 °F 56 °F  
Max Temperature 79 °F 68 °F 87 °F (1971)
Min Temperature 50 °F 43 °F 31 °F (1946)
Degree Days  
Heating Degree Days 0 10  
Month to date heating degree days 77 100  
Since 1 July heating degree days 442 983  
Cooling Degree Days 0 0  
Month to date cooling degree days 0 0  
Year to date cooling degree days 37 2  
Growing Degree Days 14 (Base 50)    
Moisture  
Dew Point 43 °F    
Average Humidity 50    
Maximum Humidity 80    
Minimum Humidity 19    
Precipitation  
Precipitation 0.00 in 0.16 in 4.35 in (1962)
Month to date precipitation 0.07 1.48  
Year to date precipitation 0.07 5.01  
Since 1 July precipitation 0.50  
Sea Level Pressure  
Sea Level Pressure 30.05 in    
Wind  
Wind Speed 6 mph (NNW)    
Max Wind Speed 23 mph    
Max Gust Speed 30 mph    
Visibility 8 miles    
Events      
T = Trace of Precipitation, MM = Missing Value Source: NWS Daily Summary

Daily Weather History Graph

Daily Weather History Graph

Search for Another Location

Airport or City:

Trip Planner

Search our weather history database for the weather conditions in past years. The results will help you decide how hot, cold, wet, or windy it might be!

Date:

Astronomy

Feb. 10, 2014 Rise Set
Actual Time 6:43 AM PST 5:32 PM PST
Civil Twilight 6:17 AM PST 5:58 PM PST
Nautical Twilight 5:47 AM PST 6:28 PM PST
Astronomical Twilight 5:18 AM PST 6:57 PM PST
Moon 2:09 PM PST (2/10) 3:35 AM PST (2/10)
Length of Visible Light 11h 41m
Length of Day
10h 49m
Waxing Gibbous, 85% of the Moon is Illuminated
Feb 10
Waxing Gibbous
Feb 14
Full
Feb 22
Last Quarter
Mar 1
New
Mar 8
First Quarter

Hourly Weather History & Observations

Time (PST) Temp. Dew Point Humidity Pressure Visibility Wind Dir Wind Speed Gust Speed Precip Events Conditions
12:53 AM 55.0 °F 46.9 °F 74% 30.11 in 7.0 mi Calm Calm - N/A   Clear
1:53 AM 55.9 °F 48.0 °F 75% 30.10 in 6.0 mi Calm Calm - N/A   Haze
2:53 AM 54.0 °F 46.9 °F 77% 30.08 in 8.0 mi Calm Calm - N/A   Clear
3:53 AM 53.1 °F 46.9 °F 80% 30.09 in 6.0 mi North 4.6 mph - N/A   Haze
4:53 AM 53.1 °F 46.0 °F 77% 30.10 in 5.0 mi Calm Calm - N/A   Haze
5:53 AM 52.0 °F 45.0 °F 77% 30.09 in 5.0 mi Calm Calm - N/A   Haze
6:53 AM 50.0 °F 44.1 °F 80% 30.12 in 3.0 mi Calm Calm - N/A   Haze
7:53 AM 53.1 °F 46.0 °F 77% 30.11 in 4.0 mi Calm Calm - N/A   Haze
8:53 AM 57.0 °F 46.9 °F 69% 30.12 in 5.0 mi Calm Calm - N/A   Haze
9:53 AM 61.0 °F 48.9 °F 64% 30.12 in 6.0 mi Calm Calm - N/A   Haze
10:53 AM 64.9 °F 48.9 °F 56% 30.10 in 7.0 mi Calm Calm - N/A   Clear
11:53 AM 71.1 °F 48.0 °F 44% 30.06 in 10.0 mi East 5.8 mph - N/A   Clear
12:33 PM 73.4 °F 46.4 °F 38% 30.04 in 10.0 mi NNW 13.8 mph - N/A   Clear
12:53 PM 78.1 °F 34.0 °F 20% 30.00 in 10.0 mi NW 11.5 mph 17.3 mph N/A   Clear
1:53 PM 78.1 °F 33.1 °F 19% 29.97 in 10.0 mi NNW 16.1 mph - N/A   Clear
2:53 PM 77.0 °F 33.1 °F 20% 29.96 in 10.0 mi WNW 13.8 mph 24.2 mph N/A   Clear
3:53 PM 77.0 °F 36.0 °F 23% 29.97 in 10.0 mi NW 15.0 mph 23.0 mph N/A   Clear
4:53 PM 73.0 °F 37.9 °F 28% 29.96 in 10.0 mi NW 12.7 mph 24.2 mph N/A   Clear
5:53 PM 70.0 °F 39.9 °F 33% 29.99 in 10.0 mi NW 6.9 mph - N/A   Clear
6:53 PM 68.0 °F 41.0 °F 37% 30.00 in 10.0 mi NW 13.8 mph - N/A   Clear
7:53 PM 68.0 °F 39.9 °F 36% 30.01 in 10.0 mi WNW 6.9 mph - N/A   Clear
8:53 PM 64.0 °F 46.0 °F 52% 30.01 in 10.0 mi SE 5.8 mph - N/A   Clear
9:53 PM 62.1 °F 48.9 °F 62% 30.03 in 10.0 mi East 3.5 mph - N/A   Clear
10:53 PM 59.0 °F 46.9 °F 64% 30.04 in 10.0 mi North 3.5 mph - N/A   Clear
11:53 PM 64.9 °F 37.9 °F 37% 30.01 in 10.0 mi NNW 12.7 mph - N/A   Clear